Wind_Speed
55 52 55 56 64 70 79 86 94 104 111 110 100 101 105 100 99 96 92 95 101 100 90 100 93 96 90 87 85 86 85 82 82 80 77 76 77 77 78 77 76 75 76 77
48 56 48 55 59 65 73 85 88 92 96 97 108 111 108 109 98 101 102 97 92 94 99 102 95 91 93 93 91 85 84 86 84 84 82 82 80 80 78 78 79 79 78 78
40 51 43 47 45 48 54 60 70 79 85 92 98 105 117 111 105 103 101 99 95 88 96 94 95 97 94 93 92 89 87 84 89 90 87 87 86 84 81 80 81 81 81 82
34 45 42 41 40 44 42 35 45 52 64 77 95 106 108 109 112 108 102 96 97 96 86 95 99 94 94 96 95 91 89 91 93 93 91 90 89 85 85 87 87 89 88 90
35 40 38 38 37 40 34 28 22 37 47 61 77 100 112 110 111 112 105 100 97 99 94 86 96 84 88 93 99 101 101 99 95 94 91 93 93 92 92 93 94 94 93 94
34 37 37 41 34 35 32 28 15 19 36 49 62 79 99 113 111 112 104 102 98 100 98 92 93 109 91 92 94 99 98 96 93 92 95 98 98 97 98 99 98 98 100 102
34 36 38 37 32 31 29 28 16 13 18 39 52 64 79 103 115 109 106 106 103 100 103 100 95 103 94 82 97 99 92 91 94 96 85 84 95 101 99 98 100 98 97 102
34 32 37 36 31 30 25 27 20 15 15 22 35 53 73 86 107 112 108 106 103 101 103 105 100 99 99 103 87 103 103 98 95 96 79 79 90 100 99 96 97 101 104 105
34 34 37 34 32 26 28 25 25 17 17 17 23 35 55 76 97 111 109 106 106 104 104 108 103 98 92 98 91 84 88 89 96 106 107 101 94 95 100 100 103 110 111 107
33 32 38 38 32 26 24 25 24 21 21 22 22 25 37 62 84 106 110 106 105 103 100 105 105 101 104 102 96 92 90 93 97 101 96 95 104 104 105 109 112 115 117 114
34 31 37 40 36 32 26 24 26 24 24 28 33 35 29 42 68 92 107 106 104 103 98 105 102 96 98 97 103 103 96 94 87 95 103 109 112 116 113 115 121 121 116 121
37 32 34 40 41 36 30 26 25 27 26 28 34 35 38 40 52 74 98 104 102 104 98 97 97 95 95 96 100 102 98 105 100 95 94 101 106 112 116 113 117 115 119 118
40 36 34 38 40 42 36 30 27 27 28 30 31 37 39 41 44 58 79 97 103 101 101 99 106 102 103 101 101 99 99 101 102 105 108 110 110 108 111 108 110 115 119 120
43 38 35 37 40 41 42 37 34 30 29 31 35 35 37 44 44 46 60 77 90 99 105 105 102 104 107 105 107 105 107 108 109 109 109 110 107 110 112 117 120 121 125 127
47 43 39 36 39 44 44 44 42 38 37 36 35 36 37 40 43 47 53 64 80 88 96 101 100 106 111 111 109 112 108 104 104 106 104 106 110 111 114 119 121 122 122 118
50 49 45 41 39 40 46 46 46 46 48 44 43 40 36 39 43 48 50 56 61 75 83 94 109 111 112 112 109 103 105 106 108 106 108 111 114 118 119 114 100 96 95 97
54 51 48 44 43 40 40 46 50 51 52 51 52 47 46 44 42 42 46 53 58 64 69 73 81 94 90 94 94 102 103 103 105 107 106 106 98 90 88 89 92 96 98 101
54 51 51 47 45 44 43 44 47 50 52 56 57 55 53 51 50 50 49 48 49 53 59 67 73 77 79 81 83 86 86 81 78 77 77 80 82 86 90 93 97 100 104 106
53 51 49 47 44 43 43 45 46 52 53 55 56 58 60 59 59 57 57 56 55 55 55 56 57 59 61 63 64 66 68 69 72 75 78 81 85 89 94 97 100 104 104 105
55 53 49 45 45 45 45 45 47 51 53 54 56 59 61 60 62 61 61 62 62 62 62 62 62 64 64 64 66 68 68 71 73 76 79 84 88 91 92 95 93 85 80 79
55 53 50 48 48 49 49 49 49 49 48 52 55 56 57 61 64 64 66 66 66 66 66 67 67 67 67 68 68 68 70 72 74 77 80 78 74 66 62 65 68 71 74 77
57 55 51 49 51 52 53 53 53 52 50 49 51 52 52 52 55 60 66 69 70 70 70 70 71 71 70 71 71 70 71 71 65 58 44 44 48 50 53 59 68 74 76 77
49 49 51 53 53 53 54 52 52 51 51 51 51 49 48 47 47 45 45 47 49 54 57 59 60 60 59 55 50 45 37 30 26 29 32 37 40 46 55 62 71 77 78 77
51 48 49 49 49 52 53 51 50 50 49 49 50 49 48 46 45 42 35 35 38 36 34 32 30 28 24 22 21 19 17 17 16 22 29 38 47 50 55 65 73 74 76 66
53 49 45 43 42 41 43 45 44 45 45 42 43 42 40 38 34 29 28 26 24 22 21 20 20 25 27 25 20 13 8 12 18 25 32 35 39 43 52 61 66 68 59 49
56 52 47 41 36 33 36 36 38 39 38 36 38 36 31 27 23 20 19 19 19 22 26 33 34 31 25 21 15 11 10 14 19 23 28 34 37 43 52 58 57 51 44 36
Wind_Direction
239 241 242 239 242 244 247 247 248 244 241 240 235 232 234 233 229 231 231 234 230 227 230 238 241 245 245 245 245 247 249 251 253 253 254 256 257 258 260 261 264 267 268 271
239 240 241 243 247 250 254 253 250 248 245 241 237 234 233 232 231 229 230 232 231 228 227 235 241 240 245 245 247 248 250 252 253 254 257 258 259 260 262 264 265 267 271 274
246 238 238 248 255 262 263 260 253 247 244 238 234 230 233 230 231 231 230 231 234 229 227 230 236 238 244 248 249 249 246 247 254 254 255 257 260 263 266 269 270 272 272 273
256 237 238 247 263 272 267 263 255 243 236 232 229 225 227 228 226 228 229 230 232 232 229 226 231 240 243 241 243 242 246 246 247 252 254 258 261 265 267 268 269 269 270 272
256 239 239 250 262 274 274 271 270 251 235 226 225 222 223 224 224 224 227 228 230 233 231 229 224 230 239 244 245 246 247 251 251 253 256 257 260 262 263 265 267 269 272 274
252 238 238 245 261 275 276 281 277 261 238 228 220 217 221 221 222 221 220 225 226 230 233 230 224 229 238 242 243 245 250 253 255 256 257 258 260 261 264 265 267 268 271 274
243 235 233 242 257 268 268 278 273 271 234 226 224 220 219 219 220 220 219 221 224 227 230 231 229 230 234 239 246 247 251 251 254 259 258 258 263 268 270 272 272 273 275 279
238 236 230 236 248 258 264 272 271 261 241 228 223 221 220 217 218 217 218 219 222 225 228 231 231 232 235 238 245 246 249 254 256 258 256 259 260 270 271 271 270 273 277 280
232 235 228 230 240 251 256 258 266 246 237 228 226 225 220 218 216 215 215 217 221 224 227 231 232 232 235 238 241 244 249 254 259 256 256 262 263 263 266 270 269 274 277 280
225 235 227 226 234 243 252 249 258 250 231 223 223 220 226 220 217 215 214 216 221 224 226 228 232 235 236 238 243 245 248 259 258 257 254 258 263 266 268 269 269 272 277 276
221 231 225 224 226 231 238 252 245 250 237 223 216 219 214 224 220 217 215 216 220 223 226 227 231 235 239 243 244 244 246 245 252 249 256 262 264 267 269 269 271 276 277 278
220 227 227 221 222 225 230 234 239 238 240 236 226 223 218 220 224 220 217 218 221 223 227 231 227 231 233 236 239 242 247 247 252 254 257 261 263 264 269 272 274 275 275 278
214 221 227 221 221 224 221 227 234 237 235 236 238 233 225 224 224 227 223 222 224 227 229 232 233 231 234 236 238 243 243 247 250 252 257 262 266 266 268 271 271 272 274 275
215 219 222 223 221 221 225 222 226 230 234 235 236 236 232 230 229 226 229 227 226 229 230 233 239 235 235 239 242 243 247 255 256 261 263 264 265 266 267 270 273 274 274 278
217 217 223 222 221 222 222 223 225 226 229 232 237 239 238 238 236 232 228 230 231 231 233 234 234 234 240 240 246 250 253 254 256 259 262 264 266 269 273 273 275 278 279 281
217 218 220 220 220 223 225 224 226 226 229 230 234 235 239 238 237 239 236 234 233 234 238 237 235 239 239 243 245 252 251 255 259 260 263 267 270 272 274 277 277 277 279 280
215 219 220 221 222 223 228 229 227 228 231 232 234 234 233 236 237 237 238 240 239 236 236 239 243 247 249 251 252 254 256 259 260 261 263 268 271 271 273 276 277 278 279 279
218 219 221 225 225 221 228 228 231 232 235 235 236 237 237 236 236 238 240 240 240 241 243 243 244 245 247 249 250 253 256 260 261 263 266 269 272 274 275 276 277 278 280 281
222 223 225 228 230 233 234 231 232 231 234 235 240 241 239 239 240 241 242 244 246 246 245 244 244 245 246 247 250 252 255 258 262 266 270 272 274 275 276 279 281 282 283 283
225 225 229 235 235 238 242 242 241 238 237 236 239 241 243 245 244 244 244 246 247 248 250 251 252 252 254 255 257 259 263 266 268 271 273 273 276 280 281 281 284 284 285 285
226 227 228 233 239 240 242 244 245 246 245 241 239 241 245 247 247 247 250 250 249 248 250 251 252 253 255 257 260 262 264 267 269 271 275 278 279 280 281 283 285 286 287 287
225 229 231 234 237 239 241 244 246 248 251 251 249 247 247 249 250 252 253 254 254 254 254 254 255 256 257 258 261 264 264 267 272 271 269 271 277 282 286 289 289 289 290 294
234 230 230 233 236 237 240 245 249 251 252 253 254 254 253 254 255 255 256 254 252 253 254 255 257 258 260 262 261 260 258 247 244 255 267 275 280 286 290 292 292 295 299 301
240 238 236 236 237 241 243 246 249 251 251 253 253 254 255 255 255 257 261 253 248 250 249 248 248 246 237 221 208 198 216 236 264 276 281 284 290 292 294 295 296 303 305 305
246 247 248 246 244 244 243 245 246 248 250 254 252 253 256 254 255 261 247 242 240 235 226 212 194 177 171 169 179 193 233 268 291 292 294 297 300 308 309 306 312 312 313 312
251 253 256 259 251 247 242 241 245 246 249 250 251 255 253 255 253 230 223 213 201 187 173 163 165 164 169 175 190 219 271 299 305 306 311 312 316 323 325 323 328 329 327 329
Height
10600 10605 10605 10613 10611 10613 10612 10616 10619 10625 10631 10646 10676 10681 10679 10696 10712 10723 10736 10737 10755 10776 10790 10784 10789 10795 10806 10810 10812 10814 10819 10826 10829 10833 10840 10843 10845 10848 10851 10854 10857 10859 10860 10860
10584 10586 10596 10594 10595 10596 10592 10591 10596 10598 10604 10625 10640 10651 10666 10666 10698 10706 10712 10722 10742 10760 10765 10763 10778 10790 10789 10791 10793 10802 10811 10810 10815 10820 10824 10828 10832 10835 10839 10842 10843 10845 10845 10844
10569 10574 10582 10577 10580 10578 10573 10568 10570 10571 10580 10593 10605 10623 10624 10655 10676 10684 10698 10710 10723 10738 10745 10756 10770 10770 10776 10783 10781 10785 10793 10794 10800 10804 10809 10812 10816 10820 10825 10828 10829 10829 10828 10827
10557 10561 10566 10567 10565 10563 10560 10556 10549 10547 10551 10564 10578 10595 10607 10630 10649 10663 10680 10696 10704 10714 10731 10741 10755 10758 10760 10759 10766 10770 10775 10779 10786 10791 10796 10798 10802 10807 10811 10813 10813 10810 10811 10811
10543 10549 10554 10555 10555 10550 10550 10544 10539 10534 10537 10543 10555 10572 10588 10605 10624 10644 10664 10678 10689 10697 10708 10724 10737 10738 10739 10742 10745 10753 10758 10765 10773 10780 10786 10787 10790 10793 10793 10792 10793 10795 10796 10795
10532 10536 10542 10541 10544 10541 10539 10536 10533 10529 10527 10532 10537 10550 10562 10587 10606 10624 10646 10659 10673 10679 10690 10705 10715 10718 10722 10726 10731 10738 10746 10752 10758 10763 10768 10771 10774 10776 10775 10777 10779 10779 10779 10779
10521 10525 10530 10533 10534 10533 10532 10530 10527 10525 10522 10520 10526 10536 10550 10564 10586 10614 10630 10637 10653 10664 10673 10685 10694 10702 10708 10715 10718 10725 10734 10739 10743 10749 10751 10753 10756 10757 10760 10761 10760 10762 10760 10759
10511 10516 10519 10523 10525 10526 10526 10525 10525 10524 10521 10521 10523 10529 10533 10555 10573 10594 10609 10625 10638 10647 10657 10666 10677 10686 10695 10702 10707 10712 10719 10723 10730 10734 10737 10737 10738 10741 10741 10742 10741 10740 10739 10737
10501 10505 10510 10515 10516 10520 10521 10521 10522 10522 10523 10523 10524 10528 10533 10542 10557 10577 10592 10609 10619 10630 10642 10652 10664 10674 10682 10687 10694 10699 10705 10710 10715 10719 10722 10723 10723 10724 10724 10724 10723 10721 10719 10716
10491 10496 10501 10506 10509 10514 10515 10516 10519 10521 10523 10524 10525 10527 10532 10539 10548 10561 10579 10594 10606 10619 10632 10642 10651 10659 10668 10674 10680 10684 10690 10696 10698 10703 10706 10708 10707 10707 10706 10704 10701 10699 10697 10694
10481 10487 10492 10497 10502 10506 10510 10512 10515 10517 10520 10522 10523 10524 10531 10534 10543 10554 10568 10583 10595 10607 10619 10627 10637 10646 10652 10659 10663 10670 10679 10681 10685 10687 10688 10689 10688 10687 10686 10683 10680 10678 10675 10671
10471 10477 10483 10487 10494 10499 10503 10506 10510 10513 10516 10519 10521 10524 10528 10531 10538 10547 10560 10573 10586 10597 10609 10619 10626 10631 10638 10643 10646 10651 10658 10665 10668 10669 10669 10669 10668 10668 10668 10664 10661 10658 10655 10649
10461 10469 10474 10480 10486 10491 10496 10500 10504 10507 10510 10514 10516 10519 10526 10529 10535 10544 10554 10566 10577 10588 10599 10606 10611 10616 10623 10627 10630 10636 10642 10646 10650 10650 10651 10651 10649 10646 10645 10643 10639 10635 10631 10628
10452 10459 10466 10470 10476 10484 10489 10494 10498 10502 10504 10506 10508 10514 10519 10525 10532 10539 10548 10556 10565 10575 10583 10591 10597 10605 10609 10614 10620 10624 10627 10630 10632 10632 10631 10631 10629 10627 10624 10620 10616 10612 10609 10603
10443 10449 10456 10462 10468 10473 10480 10486 10491 10495 10497 10500 10505 10507 10513 10519 10526 10532 10537 10545 10553 10563 10571 10577 10583 10589 10594 10601 10604 10609 10611 10613 10613 10613 10613 10612 10610 10606 10602 10598 10594 10587 10580 10575
10432 10438 10445 10453 10459 10465 10471 10476 10482 10487 10489 10494 10497 10502 10509 10512 10517 10523 10530 10536 10542 10548 10555 10563 10570 10575 10581 10587 10592 10595 10596 10596 10596 10596 10594 10591 10591 10587 10579 10573 10564 10559 10553 10547
10423 10429 10436 10445 10451 10457 10462 10466 10471 10476 10480 10485 10487 10496 10500 10506 10511 10515 10520 10525 10531 10536 10542 10549 10556 10564 10568 10573 10575 10577 10578 10577 10578 10579 10576 10573 10568 10562 10556 10550 10544 10537 10531 10524
10413 10420 10428 10433 10440 10447 10451 10458 10461 10465 10470 10475 10479 10486 10492 10498 10503 10506 10511 10516 10520 10525 10532 10538 10544 10548 10551 10554 10556 10558 10559 10560 10559 10558 10556 10552 10549 10544 10536 10530 10522 10515 10507 10499
10404 10411 10418 10425 10431 10437 10442 10447 10451 10455 10458 10464 10469 10473 10479 10485 10491 10498 10501 10507 10511 10516 10521 10525 10528 10531 10534 10538 10541 10543 10544 10547 10546 10543 10540 10535 10529 10522 10514 10508 10499 10490 10480 10471
10392 10403 10411 10417 10422 10427 10430 10435 10438 10442 10449 10455 10458 10461 10466 10472 10478 10485 10490 10493 10498 10502 10506 10509 10512 10515 10520 10525 10527 10529 10532 10531 10529 10526 10521 10514 10509 10504 10494 10484 10474 10463 10454 10446
10386 10393 10400 10406 10411 10414 10418 10423 10426 10432 10439 10442 10447 10451 10454 10459 10464 10471 10473 10478 10483 10488 10491 10494 10497 10501 10506 10508 10512 10515 10515 10514 10512 10507 10503 10497 10490 10482 10474 10465 10455 10445 10435 10423
10377 10385 10391 10395 10399 10405 10407 10411 10416 10420 10426 10431 10436 10440 10445 10448 10451 10455 10460 10463 10467 10469 10473 10477 10479 10484 10490 10492 10495 10498 10497 10496 10495 10491 10486 10482 10477 10470 10462 10450 10437 10424 10413 10403
10368 10374 10378 10385 10389 10394 10398 10402 10406 10410 10415 10418 10423 10428 10433 10436 10438 10441 10445 10448 10450 10451 10454 10459 10463 10467 10471 10475 10477 10479 10482 10482 10482 10481 10477 10471 10465 10458 10449 10435 10418 10405 10394 10381
10355 10360 10367 10373 10380 10383 10389 10393 10396 10399 10403 10407 10411 10416 10420 10423 10426 10430 10432 10433 10435 10440 10444 10448 10452 10456 10459 10463 10468 10472 10475 10476 10475 10473 10469 10462 10455 10447 10435 10419 10402 10390 10373 10356
10344 10350 10355 10361 10367 10373 10378 10381 10384 10387 10391 10396 10400 10405 10408 10412 10416 10419 10420 10423 10427 10432 10437 10441 10446 10450 10455 10461 10466 10468 10469 10470 10468 10465 10460 10453 10446 10435 10420 10405 10390 10370 10352 10338
10333 10337 10343 10349 10355 10362 10365 10368 10372 10377 10381 10385 10390 10394 10399 10403 10406 10409 10413 10417 10422 10427 10433 10439 10444 10450 10455 10459 10462 10464 10465 10464 10462 10458 10452 10444 10436 10424 10409 10392 10377 10355 10339 10326